User: anonymous   Login
Location: Carbonear
(47.7333°N, 53.2500°W)
Time: 06:04:29
(UTC+00:00)
Language:

AO-27 - Orbit

View from above orbital plane
View from above orbital plane
View from above satellite
View from above satellite

Ground track
Ground track

The orbit data is extracted from the following two-line orbital elements,

1 22825U 93061C   22340.61672050  .00000088  00000-0  51736-4 0  9998
2 22825  98.8687  15.1410 0007398 269.8281  90.2053 14.30215207522768
Epoch (UTC): 06 December 2022 14:48:04
Eccentricity: 0.0007398
inclination: 98.8687°
perigee height: 786 km
apogee height: 796 km
right ascension of ascending node: 15.1410°
argument of perigee: 269.8281°
revolutions per day: 14.30215207
mean anomaly at epoch: 90.2053°
orbit number at epoch: 52276

The dashed part of the orbit path shows where the satellite is in the earth's shadow,  

DLR